This demonstration page uses our WeatherBlox Daily Observations layout. Learn more.

Hourly Observations for June 19, 2019

Temp ( °F °C ) Dew Point ( °F °C ) Humidity (%) Winds ( mph kmh ) Pressure ( in mb ) Visibility ( mi km ) Precip ( " mm )
12:15 am 00:15 Cloudy with Mist and Fog 58 14.7 58 14.7 100 100 NNE 5 7 29.91 1013 4 6.437376 0 0
12:35 am 00:35 Cloudy 58 14.7 58 14.7 100 100 NNE 5 7 29.91 1013 10 16.09344 0 0
12:55 am 00:55 Cloudy with Mist and Fog 58 14.6 58 14.6 100 100 NE 3 6 29.88 1012 1.25 2.01168 0 0
1:15 am 01:15 Cloudy with Fog 58 14.5 58 14.5 100 100 NNE 5 7 29.88 1012 0.5 0.804672 0 0
1:35 am 01:35 Cloudy with Mist and Fog 58 14.5 58 14.5 100 100 NNE 5 7 29.88 1012 5 8.04672 0 0
1:55 am 01:55 Cloudy 58 14.7 58 14.7 100 100 NNE 6 9 29.85 1011 7 11.265408 0 0
2:15 am 02:15 Cloudy 58 14.6 58 14.6 100 100 NNE 5 7 29.85 1011 7 11.265408 0 0
2:35 am 02:35 Cloudy 58 14.7 58 14.7 100 100 NNE 6 9 29.88 1012 7 11.265408 0 0
2:55 am 02:55 Cloudy with Mist and Fog 58 14.6 58 14.6 100 100 NNE 7 11 29.85 1011 5 8.04672 0 0
3:15 am 03:15 Cloudy with Mist and Fog 58 14.5 58 14.5 100 100 N 3 6 29.85 1011 1.5 2.414016 0 0
3:35 am 03:35 Cloudy with Mist and Fog 58 14.5 58 14.5 100 100 N 6 9 29.85 1011 1 1.609344 0 0
3:55 am 03:55 Cloudy with Mist and Fog 58 14.5 58 14.5 100 100 N 3 6 29.85 1011 1 1.609344 0 0
4:15 am 04:15 Cloudy with Mist and Fog 58 14.5 58 14.5 100 100 N 5 7 29.85 1011 1 1.609344 0 0
4:35 am 04:35 Cloudy with Mist and Fog 58 14.5 58 14.5 100 100 N 7 11 29.85 1011 1 1.609344 0 0
4:55 am 04:55 Cloudy with Mist and Fog 58 14.5 58 14.5 100 100 N 5 7 29.85 1011 0.75 1.207008 0 0
5:15 am 05:15 Cloudy with Mist and Fog 58 14.5 58 14.5 100 100 N 5 7 29.85 1011 0.75 1.207008 0 0
5:35 am 05:35 Cloudy with Mist and Fog 58 14.4 58 14.4 100 100 NNE 5 7 29.83 1010 1.75 2.816352 0 0
5:55 am 05:55 Cloudy with Mist and Fog 58 14.3 58 14.3 100 100 NNE 3 6 29.83 1010 1 1.609344 0 0
6:15 am 06:15 Cloudy with Mist and Fog 58 14.3 58 14.3 100 100 Calm 29.85 1011 1.5 2.414016 0 0
6:35 am 06:35 Cloudy with Fog 58 14.3 58 14.3 100 100 N 3 6 29.85 1011 0.25 0.402336 0 0
6:55 am 06:55 Cloudy with Fog 58 14.3 58 14.3 100 100 NNE 3 6 29.85 1011 0.5 0.804672 0 0
7:15 am 07:15 Cloudy with Mist and Fog 58 14.5 58 14.5 100 100 NNE 3 6 29.85 1011 0.75 1.207008 0 0
7:35 am 07:35 Cloudy with Mist and Fog 58 14.7 58 14.7 100 100 N 3 6 29.85 1011 1.25 2.01168 0 0
7:55 am 07:55 Cloudy with Mist and Fog 59 14.8 59 14.8 100 100 Calm 29.83 1010 4 6.437376 0 0
8:15 am 08:15 Cloudy with Mist and Fog 59 15 59 15 100 100 Calm 29.83 1010 5 8.04672 0 0
8:35 am 08:35 Cloudy 59 15.1 59 15.1 100 100 Calm 29.83 1010 7 11.265408 0 0
8:55 am 08:55 Cloudy 59 15.2 59 15.2 100 100 Calm 29.83 1010 7 11.265408 0 0
9:15 am 09:15 Cloudy 60 15.6 60 15.6 100 100 Calm 29.83 1010 7 11.265408 0 0
9:35 am 09:35 Cloudy 60 15.7 60 15.7 100 100 Calm 29.83 1010 7 11.265408 0 0
9:55 am 09:55 Cloudy with Light Rain 60 15.8 60 15.7 99 99 Calm 29.83 1010 7 11.265408 0 0
10:15 am 10:15 Cloudy with Light Rain 60 15.7 60 15.7 100 100 Calm 29.83 1010 7 11.265408 0 0
10:35 am 10:35 Cloudy with Light Drizzle 61 16 61 16 100 100 ESE 5 7 29.8 1009 7 11.265408 0 0
10:55 am 10:55 Cloudy 61 16.3 61 16 98 98 Calm 29.8 1009 10 16.09344 0 0
11:15 am 11:15 Cloudy 62 16.5 61 16.1 98 98 Calm 29.8 1009 10 16.09344 0 0
11:35 am 11:35 Cloudy 63 17.4 61 16.2 93 93 Calm 29.8 1009 10 16.09344 0 0
11:55 am 11:55 Cloudy 64 17.7 61 16.3 92 92 Calm 29.8 1009 10 16.09344 0 0
12:15 pm 12:15 Cloudy 65 18.3 61 16.3 88 88 Calm 29.77 1008 10 16.09344 0 0
12:35 pm 12:35 Cloudy 65 18.3 61 16.1 87 87 Calm 29.74 1007 10 16.09344 0 0
12:55 pm 12:55 Cloudy 65 18.6 62 16.4 87 87 SSW 3 6 29.74 1007 10 16.09344 0 0
1:15 pm 13:15 Cloudy 66 19 62 16.6 86 86 SSW 5 7 29.74 1007 10 16.09344 0 0
1:35 pm 13:35 Cloudy 67 19.6 62 16.4 82 82 Calm 29.74 1007 10 16.09344 0 0
1:55 pm 13:55 Cloudy 68 19.9 62 16.5 81 81 S 5 7 29.74 1007 10 16.09344 0 0
2:15 pm 14:15 Mostly Cloudy 70 21.1 62 16.7 76 76 SSW 5 7 29.74 1007 10 16.09344 0 0
2:35 pm 14:35 Mostly Cloudy 70 21.3 62 16.8 76 76 S 5 7 29.68 1005 10 16.09344 0 0
2:55 pm 14:55 Mostly Cloudy 71 21.6 63 17.1 76 76 Calm 29.68 1005 10 16.09344 0 0
3:15 pm 15:15 Mostly Cloudy 71 21.7 62 16.6 73 73 S 5 7 29.68 1005 10 16.09344 0 0
3:35 pm 15:35 Partly Cloudy 72 22 62 16.9 73 73 WSW 5 7 29.68 1005 10 16.09344 0 0
3:55 pm 15:55 Partly Cloudy 71 21.7 62 16.4 72 72 Calm 29.68 1005 10 16.09344 0 0
4:15 pm 16:15 Mostly Cloudy 71 21.7 61 16.1 71 71 Calm 29.68 1005 10 16.09344 0 0
4:35 pm 16:35 Mostly Cloudy 73 22.7 61 16 66 66 W 5 7 29.68 1005 10 16.09344 0 0
4:55 pm 16:55 Partly Cloudy 73 22.9 61 16.2 66 66 SSE 5 7 29.68 1005 10 16.09344 0 0
5:15 pm 17:15 Mostly Cloudy 73 22.6 61 15.9 66 66 SW 3 6 29.68 1005 10 16.09344 0 0
5:35 pm 17:35 Mostly Cloudy 74 23.1 61 16.2 65 65 SW 5 7 29.68 1005 10 16.09344 0 0
5:55 pm 17:55 Partly Cloudy 74 23.6 62 16.4 64 64 WNW 6 9 29.68 1005 10 16.09344 0 0
6:15 pm 18:15 Sunny 74 23.4 61 16.1 64 64 WSW 5 7 29.68 1005 10 16.09344 0 0
6:35 pm 18:35 Partly Cloudy 74 23.2 61 16.2 65 65 WSW 5 7 29.65 1004 10 16.09344 0 0
6:55 pm 18:55 Mostly Cloudy 74 23.3 62 16.6 66 66 SW 3 6 29.65 1004 10 16.09344 0 0
7:15 pm 19:15 Mostly Cloudy 74 23.4 62 16.5 65 65 S 5 7 29.65 1004 10 16.09344 0 0
7:35 pm 19:35 Partly Cloudy 74 23.4 61 16.2 64 64 SSW 5 7 29.65 1004 10 16.09344 0 0
7:55 pm 19:55 Sunny 74 23.2 61 16.2 65 65 S 3 6 29.65 1004 10 16.09344 0 0
8:15 pm 20:15 Sunny 73 23 61 16.3 66 66 S 5 7 29.65 1004 10 16.09344 0 0
8:35 pm 20:35 Sunny 73 22.5 62 16.5 69 69 S 3 6 29.65 1004 10 16.09344 0 0
8:55 pm 20:55 Sunny 70 21.3 63 17.1 77 77 S 3 6 29.65 1004 10 16.09344 0 0
9:15 pm 21:15 Clear 69 20.5 64 17.6 84 84 SSE 5 7 29.68 1005 10 16.09344 0 0
9:35 pm 21:35 Clear 68 20 63 17.1 83 83 SSE 3 6 29.68 1005 10 16.09344 0 0
9:55 pm 21:55 Clear 67 19.3 64 17.5 89 89 SSE 5 7 29.68 1005 10 16.09344 0 0
10:15 pm 22:15 Clear 67 19.3 64 17.5 89 89 S 6 9 29.68 1005 10 16.09344 0 0
10:35 pm 22:35 Clear 66 19.1 64 17.7 92 92 S 7 11 29.68 1005 10 16.09344 0 0
10:55 pm 22:55 Clear 66 18.8 64 17.6 93 93 S 7 11 29.68 1005 10 16.09344 0 0
11:15 pm 23:15 Clear 65 18.6 64 17.6 94 94 S 10 17 29.68 1005 10 16.09344 0 0
11:35 pm 23:35 Clear 66 19 64 17.5 91 91 S 8 13 29.68 1005 10 16.09344 0 0
11:55 pm 23:55 Clear 65 18.5 63 17.3 93 93 S 8 13 29.68 1005 10 16.09344 0 0

Powered by AerisWeather